Disclaimer

Please do not use the information listed here in-flight or in-navigation, as they are not provided to us by the airports but are provided by volunteers, so they might be outdated.

Search


Regions


Airport information page

No radio frequency information is available.

Airport informations:
Latitude: 57° 45' 27.34" N
Longitude: 014° 04' 07.43" E
Elevation: 741 feet - 226 meters
Operating hours: Remarks
Operating agency: Civil government, landing fees and diplomatic clearance may be required
Timezone: UTC+1(+2DT) - Last Sunday in March to last Sunday in October
Fuel: Jet A1, without icing nhibitor.

100/130 MIL Spec, low lead, aviation gasoline (BLUE)

Runway information:
01/19 - 7228 x 148 feet< - >2203 x 45 meters
11/29 - 1969 x 82 feet< - >600 x 25 meters

Recent METARs:
ESGJ 212020Z 11002KT 9999 BKN012 M01/M03 Q1012 R19/720070
ESGJ 212050Z 13002KT 9999 BKN009 M01/M03 Q1012 R19/720070
ESGJ 212120Z 13003KT 9999 BKN010 M01/M02 Q1012 R19/720070

Airport on the map: